This is the latest recevied weather packets stored in our database for station/object WX9WTF. If no packets are shown the sender has not sent any weather packets the latest 10 day(s).
| Time | Temp. | Humidity | Pressure | Rain* | Wind** | Luminosity | Snow |
|---|---|---|---|---|---|---|---|
| 1777509513 | 13.89° C | 55% | 1018.6 hPa | 0 mm | - | 18 W/m² | - |
| 1777509211 | 13.89° C | 55% | 1018.8 hPa | 0 mm | - | 22 W/m² | - |
| 1777508907 | 13.89° C | 54% | 1018.7 hPa | 0 mm | - | 22 W/m² | - |
| 1777508604 | 14.44° C | 53% | 1018.7 hPa | 0 mm | - | 24 W/m² | - |
| 1777508302 | 14.44° C | 54% | 1018.6 hPa | 0 mm | - | 30 W/m² | - |
| 1777507999 | 14.44° C | 55% | 1018.5 hPa | 0 mm | - | 32 W/m² | - |
| 1777507695 | 14.44° C | 55% | 1018.4 hPa | 0 mm | - | 38 W/m² | - |
| 1777507392 | 14.44° C | 55% | 1018.6 hPa | 0 mm | - | 45 W/m² | - |
| 1777507090 | 14.44° C | 55% | 1018.5 hPa | 0 mm | - | 53 W/m² | - |
| 1777506787 | 14.44° C | 54% | 1018.4 hPa | 0 mm | - | 69 W/m² | - |
| 1777506484 | 14.44° C | 54% | 1018.5 hPa | 0 mm | - | 67 W/m² | - |
| 1777506178 | 15° C | 54% | 1018.6 hPa | 0 mm | - | 71 W/m² | - |
| 1777505869 | 15° C | 53% | 1018.5 hPa | 0 mm | - | 86 W/m² | - |
| 1777505566 | 15° C | 53% | 1018.5 hPa | 0 mm | - | 91 W/m² | - |
| 1777505262 | 15° C | 53% | 1018.6 hPa | 0 mm | - | 120 W/m² | - |
| 1777504959 | 15.56° C | 53% | 1018.4 hPa | 0 mm | - | 109 W/m² | - |
| 1777504656 | 15.56° C | 53% | 1018.5 hPa | 0 mm | - | 121 W/m² | - |
| 1777504353 | 15.56° C | 53% | 1018.3 hPa | 0 mm | - | 141 W/m² | - |
| 1777504047 | 16.11° C | 52% | 1018.6 hPa | 0 mm | - | 157 W/m² | - |
| 1777503744 | 15.56° C | 54% | 1018.5 hPa | 0 mm | - | 170 W/m² | - |
| 1777503441 | 15.56° C | 53% | 1018.4 hPa | 0 mm | - | 198 W/m² | - |
| 1777503137 | 15° C | 53% | 1018.6 hPa | 0 mm | - | 195 W/m² | - |
| 1777502835 | 15.56° C | 52% | 1018.7 hPa | 0 mm | - | 160 W/m² | - |
| 1777502532 | 16.67° C | 51% | 1018.3 hPa | 0 mm | - | 148 W/m² | - |
| 1777502229 | 16.67° C | 50% | 1018.5 hPa | 0 mm | - | 335 W/m² | - |
* Rain latest hour (hover to see other rain measurements)
** Current wind speed in m/s (hover to see current wind gust speed)